Location: Newark
(43.0000°N, 1.6781°W)
Time: 10:19:47
(UTC+00:00)

Vanguard 1 Rocket - Pass Details

Date: 07 October 2022
Orbit: 650 x 4225 km, 34.3° (Epoch: 04 December)

Event Time Altitude Azimuth Distance (km) Brightness Sun altitude
Rises 18:32:37 0° 238° (WSW) 8,465 13.3 -10.9°
Reaches altitude 10° 18:38:52 10° 234° (SW) 7,361 12.8 -12.0°
Maximum altitude 19:01:59 55° 166° (SSE) 3,561 10.2 -16.2°
Enters shadow 19:12:18 23° 100° (E) 3,986 10.0 -18.1°
